�N����,����,�~����,�C��,���x,�C��,����,���ϕ���,�ő�u�ԕ���,�ő厞����,���˗�,�I�_���x,�n�����x,�ő啗���N��,DTYPE
"21/05/02","00:10",0.0,11.9,94.3,997.9,303.8,1.3,2.0,307.2,0.00,11.1,130.0,"00:00:56",1
"21/05/02","00:20",0.0,11.9,94.4,997.7,305.2,1.6,2.8,316.7,0.00,11.1,130.0,"00:12:54",1
"21/05/02","00:30",0.0,11.8,94.5,998.2,310.8,1.6,2.4,327.1,0.00,11.0,130.0,"00:24:22",1
"21/05/02","00:40",0.0,11.6,94.6,998.2,295.7,1.5,2.0,310.4,0.00,10.8,130.0,"00:34:48",1
"21/05/02","00:50",0.0,11.8,94.7,998.2,301.7,1.8,4.1,329.5,0.00,11.0,130.0,"00:44:54",1
"21/05/02","01:00",0.0,11.9,94.8,997.9,303.8,1.7,2.4,332.6,0.00,11.1,130.0,"00:58:50",1
"21/05/02","01:10",0.0,11.9,94.6,998.4,311.7,1.7,2.5,322.0,0.00,11.1,130.0,"01:05:52",1
"21/05/02","01:20",0.0,11.7,94.5,998.2,305.2,1.6,2.8,308.8,0.00,10.9,130.0,"01:18:52",1
"21/05/02","01:30",0.0,11.5,94.1,998.2,314.0,2.3,4.7,311.8,0.00,10.6,130.0,"01:29:40",1
"21/05/02","01:40",0.0,11.7,93.1,998.2,311.3,2.5,3.9,328.3,0.00,10.7,130.0,"01:31:16",1
"21/05/02","01:50",0.0,12.1,91.8,998.4,290.6,2.2,3.7,264.8,0.00,10.8,130.0,"01:44:42",1
"21/05/02","02:00",0.0,12.7,89.2,997.9,273.7,2.3,5.0,248.7,0.00,11.0,130.0,"01:53:24",1
"21/05/02","02:10",0.0,13.0,85.4,998.2,265.2,1.8,3.5,254.6,0.00,10.7,130.0,"02:02:58",1
"21/05/02","02:20",0.0,13.1,80.5,998.6,284.2,2.2,4.4,247.4,0.00,9.9,130.0,"02:12:02",1
"21/05/02","02:30",0.0,13.3,75.0,998.4,279.7,2.3,4.4,269.6,0.00,9.0,130.0,"02:21:52",1
"21/05/02","02:40",0.0,13.2,72.1,998.6,299.3,1.7,3.5,340.5,0.00,8.3,130.0,"02:35:28",1
"21/05/02","02:50",0.0,13.0,71.7,998.4,280.9,1.2,2.1,307.4,0.00,8.1,130.0,"02:43:14",1
"21/05/02","03:00",0.0,12.6,72.3,998.4,302.0,1.5,3.1,319.7,0.00,7.8,130.0,"02:59:06",1
"21/05/02","03:10",0.0,12.6,72.6,998.6,271.3,1.3,3.4,262.4,0.00,7.9,130.0,"03:07:38",1
"21/05/02","03:20",0.0,12.5,72.7,998.9,288.0,1.5,2.6,317.4,0.00,7.8,130.0,"03:10:18",1
"21/05/02","03:30",0.0,12.2,73.2,998.9,290.7,1.5,2.4,333.6,0.00,7.6,130.0,"03:27:34",1
"21/05/02","03:40",0.0,11.7,75.2,998.6,300.5,2.0,3.3,337.6,0.00,7.5,130.0,"03:31:28",1
"21/05/02","03:50",0.0,11.6,76.7,998.9,294.9,1.8,3.4,286.1,0.00,7.7,130.0,"03:42:56",1
"21/05/02","04:00",0.0,11.6,77.2,998.6,280.8,1.5,2.4,291.7,0.00,7.8,130.0,"03:55:20",1
"21/05/02","04:10",0.0,11.8,76.7,998.6,270.5,1.7,3.4,315.8,0.00,7.9,130.0,"04:07:10",1
"21/05/02","04:20",0.0,11.8,75.9,998.6,273.2,1.5,2.6,241.5,0.00,7.7,130.0,"04:14:50",1
"21/05/02","04:30",0.0,11.5,75.6,998.4,286.3,1.5,2.0,301.3,0.00,7.4,130.0,"04:23:28",1
"21/05/02","04:40",0.0,11.4,75.7,998.6,289.5,1.7,2.4,296.2,0.00,7.3,130.0,"04:33:36",1
"21/05/02","04:50",0.0,11.5,75.3,998.6,299.4,2.1,3.2,308.6,0.00,7.3,130.0,"04:44:48",1
"21/05/02","05:00",0.0,11.5,75.1,998.9,295.1,1.8,2.9,323.1,0.00,7.3,130.0,"04:58:16",1
"21/05/02","05:10",0.0,11.5,75.0,999.1,299.3,2.1,4.4,321.1,0.00,7.3,130.0,"05:08:56",1
"21/05/02","05:20",0.0,11.5,74.9,999.1,292.6,1.8,4.4,307.2,0.00,7.2,130.0,"05:11:36",1
"21/05/02","05:30",0.0,11.6,74.5,999.1,289.7,1.8,3.3,270.5,0.00,7.3,130.0,"05:20:48",1
"21/05/02","05:40",0.0,11.5,74.5,999.6,295.3,1.6,2.7,312.4,0.00,7.2,130.0,"05:30:02",1
"21/05/02","05:50",0.0,11.6,74.3,999.3,280.6,1.8,4.4,237.5,0.00,7.2,130.0,"05:42:18",1
"21/05/02","06:00",0.0,11.8,73.5,999.6,273.8,2.3,4.5,272.2,0.00,7.3,130.0,"05:57:04",1
"21/05/02","06:10",0.0,12.2,71.9,999.8,278.8,2.2,3.5,265.3,0.01,7.3,130.0,"06:07:40",1
"21/05/02","06:20",0.0,12.5,70.6,1000.0,267.5,1.8,5.1,249.9,0.01,7.3,130.0,"06:17:00",1
"21/05/02","06:30",0.0,12.6,69.4,1000.3,263.8,2.1,3.7,204.0,0.01,7.2,130.0,"06:26:08",1
"21/05/02","06:40",0.0,12.4,69.5,1000.3,254.7,2.7,6.4,282.7,0.01,7.0,130.0,"06:31:04",1
"21/05/02","06:50",0.0,12.6,70.2,1000.3,267.3,1.5,3.2,262.1,0.04,7.4,130.0,"06:46:56",1
"21/05/02","07:00",0.0,12.6,70.2,1000.3,268.7,2.0,4.7,240.5,0.03,7.4,130.0,"06:52:08",1
"21/05/02","07:10",0.0,12.8,70.5,1000.5,278.6,1.8,4.2,324.3,0.06,7.6,130.0,"07:08:16",1
"21/05/02","07:20",0.0,13.2,69.6,1000.3,278.3,2.8,6.5,317.3,0.10,7.8,130.0,"07:17:52",1
"21/05/02","07:30",0.0,13.8,68.7,1000.8,287.5,2.7,4.9,259.6,0.15,8.2,130.0,"07:24:24",1
"21/05/02","07:40",0.0,13.9,65.8,1000.5,265.5,2.7,6.0,314.8,0.14,7.7,130.0,"07:30:32",1
"21/05/02","07:50",0.0,13.9,66.2,1000.8,287.8,2.6,7.5,339.3,0.13,7.7,130.0,"07:47:28",1
"21/05/02","08:00",0.0,14.8,64.7,1000.8,275.6,2.5,4.7,324.4,0.21,8.3,130.0,"07:51:44",1
"21/05/02","08:10",0.0,15.2,62.5,1000.5,281.1,2.2,5.8,247.8,0.29,8.1,130.0,"08:07:20",1
"21/05/02","08:20",0.0,15.5,61.6,1000.5,281.7,2.5,4.9,280.4,0.29,8.2,130.0,"08:19:12",1
"21/05/02","08:30",0.0,15.8,59.6,1000.5,269.1,2.2,4.7,332.4,0.33,8.0,130.0,"08:27:28",1
"21/05/02","08:40",0.0,15.3,59.3,1000.8,277.7,2.8,6.4,327.5,0.25,7.5,130.0,"08:38:32",1
"21/05/02","08:50",0.0,15.6,59.1,1000.8,283.7,2.8,6.2,260.7,0.36,7.7,130.0,"08:49:12",1
"21/05/02","09:00",0.0,15.2,58.2,1001.0,290.1,2.2,5.0,357.8,0.16,7.1,130.0,"08:54:00",1
"21/05/02","09:10",0.0,14.7,60.2,1001.0,271.5,3.2,6.7,329.4,0.16,7.1,130.0,"09:09:04",1
"21/05/02","09:20",0.0,14.6,58.7,1001.2,285.9,2.7,5.4,257.7,0.15,6.7,130.0,"09:18:00",1
"21/05/02","09:30",0.0,14.4,60.0,1001.2,294.7,3.4,7.7,342.1,0.12,6.8,130.0,"09:21:36",1
"21/05/02","09:40",0.0,14.3,60.9,1001.2,284.2,2.6,7.1,323.7,0.08,6.9,130.0,"09:37:20",1
"21/05/02","09:50",0.0,14.1,62.2,1001.2,283.1,2.7,4.5,229.1,0.07,7.0,130.0,"09:45:28",1
"21/05/02","10:00",0.2,13.6,65.9,1001.2,290.9,1.8,3.5,281.1,0.03,7.4,130.0,"09:50:32",1
"21/05/02","10:10",0.2,13.0,69.8,1001.5,274.6,2.0,3.6,314.2,0.04,7.7,130.0,"10:07:44",1
"21/05/02","10:20",0.2,13.4,72.5,1001.5,300.7,1.6,2.8,329.1,0.14,8.6,130.0,"10:12:48",1
"21/05/02","10:30",0.0,13.6,72.9,1001.5,273.1,1.7,3.3,251.1,0.19,8.9,130.0,"10:28:40",1
"21/05/02","10:40",0.0,13.9,71.8,1001.2,277.6,2.0,4.4,240.6,0.18,8.9,130.0,"10:33:28",1
"21/05/02","10:50",0.0,14.3,70.5,1001.7,281.2,2.0,4.5,318.4,0.16,9.1,130.0,"10:40:32",1
"21/05/02","11:00",0.0,14.1,69.9,1001.5,263.8,2.0,4.5,243.3,0.10,8.7,130.0,"10:56:40",1
"21/05/02","11:10",0.2,14.0,69.5,1001.5,285.0,1.8,5.0,333.6,0.11,8.6,130.0,"11:00:56",1
"21/05/02","11:20",0.0,13.7,70.0,1001.2,288.0,2.7,6.6,223.2,0.13,8.4,130.0,"11:19:04",1
"21/05/02","11:30",0.2,13.9,70.1,1001.2,272.3,2.3,4.1,303.9,0.20,8.6,130.0,"11:22:56",1
"21/05/02","11:40",0.2,13.8,71.1,1001.5,281.9,2.1,4.0,285.4,0.14,8.7,130.0,"11:38:48",1
"21/05/02","11:50",0.0,13.4,71.8,1001.5,267.7,2.3,7.7,315.0,0.12,8.5,130.0,"11:40:24",1
"21/05/02","12:00",0.2,14.9,74.1,1001.2,283.2,2.1,4.4,351.1,0.45,10.4,130.0,"11:52:56",1
"21/05/02","12:10",0.0,14.8,71.4,1001.9,281.9,2.6,5.6,321.4,0.35,9.7,130.0,"12:05:04",1
"21/05/02","12:20",0.0,15.1,69.6,1001.5,262.5,2.0,4.0,242.2,0.36,9.6,130.0,"12:13:36",1
"21/05/02","12:30",0.0,14.5,68.8,1001.7,245.5,2.5,5.1,223.8,0.15,8.9,130.0,"12:23:04",1
"21/05/02","12:40",0.0,14.1,69.6,1001.5,264.2,2.3,4.2,209.0,0.09,8.7,130.0,"12:31:20",1
"21/05/02","12:50",0.0,14.0,69.7,1001.5,262.6,2.6,4.9,227.4,0.06,8.6,130.0,"12:44:40",1
"21/05/02","13:00",0.0,13.9,70.6,1001.5,284.4,2.6,5.6,240.4,0.09,8.7,130.0,"12:56:08",1
"21/05/02","13:10",0.0,13.9,71.7,1001.7,290.3,2.6,5.6,330.9,0.11,8.9,130.0,"13:08:24",1
"21/05/02","13:20",0.2,13.5,73.9,1001.9,335.8,2.5,5.0,336.9,0.11,9.0,130.0,"13:16:40",1
"21/05/02","13:30",0.0,14.1,75.3,1001.7,326.8,2.5,5.2,6.4,0.29,9.8,130.0,"13:24:56",1
"21/05/02","13:40",0.0,14.0,75.3,1002.2,322.1,4.0,7.5,344.0,0.31,9.7,130.0,"13:37:44",1
"21/05/02","13:50",0.2,13.9,77.6,1002.2,326.6,4.2,9.5,332.4,0.40,10.1,130.0,"13:40:48",1
"21/05/02","14:00",0.0,14.3,77.0,1002.4,304.0,2.6,5.8,344.1,0.39,10.4,130.0,"13:56:48",1
"21/05/02","14:10",0.0,14.8,75.6,1002.2,299.1,2.1,4.8,332.9,0.27,10.6,130.0,"14:07:32",1
"21/05/02","14:20",0.0,15.8,73.1,1002.4,322.8,3.7,9.0,328.8,0.62,11.0,130.0,"14:19:04",1
"21/05/02","14:30",0.0,15.6,68.9,1002.4,325.2,4.9,8.3,324.3,0.64,10.0,130.0,"14:24:32",1
"21/05/02","14:40",0.0,15.4,67.9,1002.4,307.5,3.7,8.5,331.9,0.39,9.5,130.0,"14:31:28",1
"21/05/02","14:50",0.0,15.0,68.8,1002.9,296.4,3.4,6.3,326.2,0.30,9.4,130.0,"14:43:44",1
"21/05/02","15:00",0.0,14.7,70.2,1002.9,296.9,3.1,6.7,337.3,0.24,9.4,130.0,"14:58:40",1
"21/05/02","15:10",0.0,14.7,71.2,1002.9,288.1,2.8,4.7,317.0,0.30,9.6,130.0,"15:03:28",1
"21/05/02","15:20",0.0,14.9,72.8,1002.9,287.8,2.7,4.8,313.9,0.41,10.1,130.0,"15:19:52",1
"21/05/02","15:30",0.0,15.0,71.8,1003.1,319.7,3.4,6.2,335.9,0.34,10.0,130.0,"15:20:24",1
"21/05/02","15:40",0.0,13.9,72.0,1003.4,312.2,3.6,6.6,330.7,0.12,9.0,130.0,"15:34:56",1
"21/05/02","15:50",0.0,13.3,75.2,1003.6,303.1,2.7,5.5,340.5,0.10,9.0,130.0,"15:40:16",1
"21/05/02","16:00",0.0,13.3,77.6,1003.4,310.8,2.7,4.3,328.6,0.12,9.5,130.0,"15:52:24",1
"21/05/02","16:10",0.0,12.9,78.2,1003.6,322.9,3.5,5.5,326.7,0.06,9.2,130.0,"16:07:20",1
"21/05/02","16:20",0.0,13.5,78.2,1004.1,312.1,2.7,5.6,340.7,0.20,9.8,130.0,"16:16:24",1
"21/05/02","16:30",0.0,13.1,76.5,1004.3,314.5,3.2,6.2,345.3,0.09,9.1,130.0,"16:25:36",1
"21/05/02","16:40",0.0,13.1,75.5,1004.8,326.8,3.2,5.7,334.4,0.08,8.9,130.0,"16:32:40",1
"21/05/02","16:50",0.0,12.7,75.6,1005.0,329.4,3.4,5.7,349.8,0.09,8.5,130.0,"16:46:48",1
"21/05/02","17:00",0.0,12.6,77.0,1005.0,335.1,2.8,7.9,333.5,0.09,8.7,130.0,"16:55:44",1
"21/05/02","17:10",0.0,12.0,78.4,1005.2,332.9,3.6,8.5,316.7,0.11,8.4,130.0,"17:04:32",1
"21/05/02","17:20",0.0,11.5,79.9,1004.8,334.7,3.2,5.8,327.1,0.05,8.2,130.0,"17:15:36",1
"21/05/02","17:30",0.0,11.6,81.0,1005.5,322.9,2.6,5.8,327.6,0.06,8.5,130.0,"17:23:12",1
"21/05/02","17:40",0.0,11.7,81.3,1005.2,315.3,2.0,3.6,343.8,0.06,8.6,130.0,"17:32:56",1
"21/05/02","17:50",0.0,11.9,80.6,1005.5,315.9,2.1,3.2,317.9,0.04,8.7,130.0,"17:47:52",1
"21/05/02","18:00",0.0,12.1,79.6,1005.5,325.1,2.3,5.2,336.8,0.02,8.7,130.0,"17:54:24",1
"21/05/02","18:10",0.0,12.2,78.2,1005.7,320.8,2.0,3.4,309.8,0.03,8.6,130.0,"18:04:08",1
"21/05/02","18:20",0.0,12.1,77.0,1005.7,316.5,1.8,3.2,338.8,0.02,8.2,130.0,"18:19:04",1
"21/05/02","18:30",0.0,11.9,76.4,1006.0,326.1,2.6,3.5,324.4,0.01,7.9,130.0,"18:26:16",1
"21/05/02","18:40",0.0,11.6,76.9,1006.0,315.2,1.8,3.2,322.8,0.00,7.7,130.0,"18:30:48",1
"21/05/02","18:50",0.0,11.3,77.6,1006.2,322.1,2.5,4.1,341.1,0.00,7.6,130.0,"18:48:16",1
"21/05/02","19:00",0.0,11.3,77.8,1006.4,313.9,2.7,5.0,312.0,0.00,7.6,130.0,"18:54:24",1
"21/05/02","19:10",0.0,11.1,77.9,1006.7,313.8,1.3,2.6,329.8,0.00,7.4,130.0,"19:00:16",1
"21/05/02","19:20",0.0,10.8,78.4,1006.9,307.9,1.3,2.4,318.8,0.00,7.2,130.0,"19:17:36",1
"21/05/02","19:30",0.0,10.8,79.1,1006.9,312.7,1.0,2.8,340.4,0.00,7.4,130.0,"19:20:02",1
"21/05/02","19:40",0.0,10.4,80.3,1007.1,305.3,1.6,3.3,339.7,0.00,7.2,130.0,"19:30:24",1
"21/05/02","19:50",0.0,10.3,81.6,1006.9,315.2,2.0,2.6,326.2,0.00,7.3,130.0,"19:45:44",1
"21/05/02","20:00",0.0,10.2,82.8,1007.6,324.9,2.1,2.8,323.9,0.00,7.4,130.0,"19:50:40",1
"21/05/02","20:10",0.0,10.1,83.7,1007.6,317.6,1.7,2.9,321.1,0.00,7.5,130.0,"20:01:04",1
"21/05/02","20:20",0.0,10.3,84.4,1008.3,326.5,1.6,3.1,324.5,0.00,7.8,130.0,"20:12:48",1
"21/05/02","20:30",0.0,10.3,84.8,1008.1,301.7,1.5,2.4,331.8,0.00,7.9,130.0,"20:20:56",1
"21/05/02","20:40",0.0,10.3,85.3,1008.3,317.1,1.7,2.6,321.9,0.00,8.0,130.0,"20:33:04",1
"21/05/02","20:50",0.0,10.4,85.6,1008.6,329.0,1.3,2.9,319.3,0.00,8.1,130.0,"20:49:28",1
"21/05/02","21:00",0.0,10.1,86.1,1008.8,329.6,1.6,2.8,318.4,0.00,7.9,130.0,"20:50:24",1
"21/05/02","21:10",0.0,10.0,86.6,1008.8,332.6,1.3,2.6,310.7,0.00,7.9,130.0,"21:09:36",1
"21/05/02","21:20",0.0,9.9,87.2,1009.0,323.3,1.8,3.1,321.5,0.00,7.9,130.0,"21:10:56",1
"21/05/02","21:30",0.0,9.6,87.8,1009.3,326.3,2.0,3.2,314.1,0.00,7.7,130.0,"21:25:20",1
"21/05/02","21:40",0.0,9.5,88.2,1009.3,312.8,1.6,2.5,315.8,0.00,7.7,130.0,"21:31:28",1
"21/05/02","21:50",0.0,9.4,88.7,1009.3,304.1,1.7,3.1,326.5,0.00,7.7,130.0,"21:47:04",1
"21/05/02","22:00",0.0,9.4,89.0,1009.5,319.3,1.6,2.5,303.9,0.00,7.7,130.0,"21:57:28",1
"21/05/02","22:10",0.0,9.4,89.4,1009.5,317.5,1.6,3.3,303.6,0.00,7.8,130.0,"22:06:56",1
"21/05/02","22:20",0.0,9.4,89.6,1009.5,308.1,1.6,2.9,332.5,0.00,7.8,130.0,"22:13:12",1
"21/05/02","22:30",0.0,9.5,89.7,1009.7,298.4,1.8,3.2,308.7,0.00,7.9,130.0,"22:25:20",1
"21/05/02","22:40",0.0,9.4,89.7,1009.7,310.8,1.2,2.4,308.0,0.00,7.8,130.0,"22:39:52",1
"21/05/02","22:50",0.0,9.1,89.9,1010.0,328.2,1.6,2.6,318.5,0.00,7.6,130.0,"22:40:40",1
"21/05/02","23:00",0.0,8.9,90.2,1010.4,317.9,1.8,3.6,318.3,0.00,7.4,130.0,"22:52:08",1
"21/05/02","23:10",0.0,8.8,90.5,1010.2,322.6,1.8,2.6,322.5,0.00,7.4,130.0,"23:00:24",1
"21/05/02","23:20",0.0,8.7,90.6,1010.2,319.6,1.5,2.4,321.3,0.00,7.3,130.0,"23:13:20",1
"21/05/02","23:30",0.0,8.6,90.9,1010.7,330.8,1.7,2.7,353.6,0.00,7.2,130.0,"23:22:48",1
"21/05/02","23:40",0.0,8.4,91.2,1010.4,323.2,1.5,2.5,328.3,0.00,7.1,130.0,"23:37:28",1
"21/05/02","23:50",0.0,8.3,91.5,1010.9,329.8,1.8,3.9,327.3,0.00,7.0,130.0,"23:46:24",1
"21/05/02","24:00",0.0,8.2,91.7,1010.7,310.2,2.0,2.9,313.6,0.00,7.0,130.0,"23:57:12",1
